Location: Dentlein
(49.1477°N, 10.4231°E)
Time: 21:54:04
(UTC+00:00)

SL-16 R/B - Pass Details

Date: 23 May 2024
Orbit: 985 x 1006 km, 99.7° (Epoch: 14 June)

Event Time Altitude Azimuth Distance (km) Brightness Sun altitude
Rises 01:47:36 0° 163° (SSE) 3,720 5.2 -12.4°
Reaches altitude 10° 01:50:04 10° 164° (SSE) 2,775 4.5 -12.2°
Maximum altitude 01:56:20 86° 254° (WSW) 1,017 2.6 -11.5°
Drops below altitude 10° 02:02:39 10° 343° (NNW) 2,793 5.4 -10.9°
Sets 02:05:08 0° 344° (NNW) 3,746 6.1 -10.6°
